Home   Weather   Libreville   Past weeks

Flag for Gabon Past Weather in Libreville, Gabon — Yesterday and Last 2 Weeks

Now
77 °F

Passing clouds.


Feels Like: 78 °F
Forecast: 78 / 84 °F
Wind: No wind

Location: Libreville Airport

Current Time: Feb 20, 2017 at 7:11:05 am

Latest Report: Feb 20, 2017 at 6:00 am


Visibility: 5 mi

Pressure: 29.89 "Hg

Humidity: 100%

Dew Point: 77 °F

Location of LibrevilleLocation

Past Weather in Libreville — Graph

°F

Libreville Temperature Yesterday

Maximum temperature yesterday: 86 °F (at 1:00 pm)
Minimum temperature yesterday: 77 °F (at 2:00 am)
Average temperature yesterday: 81 °F

High & Low Weather Summary for the Past Weeks

 TemperatureHumidityPressure
High88 °F (Feb 5, 2:00 pm)100% (Feb 6, 6:00 am)29.95 "Hg (Feb 6, 6:00 am)
Low72 °F (Feb 6, 11:00 am)55% (Feb 17, 4:00 pm)29.68 "Hg (Feb 12, 4:00 pm)
Average81 °F84%29.82 "Hg
* Reported Feb 5 5:00 am — Feb 20 5:00 am, Libreville, Weather by CustomWeather, © 2017

Note: Actual official high and low records may vary slightly from our data, if they occured in-between our weather recording intervals... More about our weather records

Advertising

Libreville Weather History for the Previous 24 Hours

Scroll right to see more
 ConditionsComfort  
Time TempWeatherWind HumidityBarometerVisibility
5:00 am
Mon, Feb 20
77 °FPassing clouds.No wind100%29.86 "Hg5 mi
4:00 am79 °FPassing clouds.7 mph89%29.86 "HgN/A
3:00 am79 °FPassing clouds.5 mph94%29.86 "Hg6 mi
2:00 am77 °FThunderstorms. Passing clouds.9 mph89%29.89 "Hg4 mi
1:00 am81 °FPassing clouds.No wind89%29.92 "HgN/A
12:00 am82 °FPassing clouds.No wind79%29.92 "HgN/A
11:00 pm
Sun, Feb 19
82 °FPassing clouds.2 mph84%29.92 "HgN/A
10:00 pm82 °FPassing clouds.7 mph79%29.92 "HgN/A
9:00 pm82 °FPassing clouds.6 mph84%29.89 "HgN/A
8:00 pm82 °FPassing clouds.8 mph79%29.86 "HgN/A
7:00 pm82 °FPassing clouds.7 mph79%29.86 "HgN/A
6:00 pm82 °FScattered clouds.7 mph79%29.83 "HgN/A
5:00 pm84 °FPassing clouds.8 mph74%29.80 "HgN/A
4:00 pm84 °FPassing clouds.8 mph74%29.83 "HgN/A
3:00 pm84 °FScattered clouds.8 mph79%29.86 "HgN/A
2:00 pm84 °FPassing clouds.7 mph79%29.86 "HgN/A
1:00 pm86 °FPassing clouds.6 mph70%29.92 "HgN/A
12:00 pm84 °FPassing clouds.12 mph79%29.95 "HgN/A
11:00 am84 °FScattered clouds.8 mph74%29.95 "HgN/A
10:00 am82 °FScattered clouds.6 mph79%29.95 "HgN/A
9:00 am81 °FScattered clouds.6 mph89%29.95 "HgN/A
8:00 am77 °FPassing clouds.No wind100%29.92 "Hg6 mi
7:00 am77 °FPassing clouds.6 mph94%29.92 "Hg6 mi
Weather by CustomWeather, © 2017

See weather overviewHow to use our weather pages